TimePDT,TemperatureF,Dew PointF,Humidity,Sea Level PressureIn,VisibilityMPH,Wind Direction,Wind SpeedMPH,Gust SpeedMPH,PrecipitationIn,Events,Conditions,WindDirDegrees,DateUTC
12:54 AM,51.1,51.1,100,29.71,8.0,Calm,Calm,-,0.00,,Mostly Cloudy,0,2012-11-01 07:54:00
1:54 AM,51.1,51.1,100,29.71,4.0,Calm,Calm,-,0.06,Rain,Light Rain,0,2012-11-01 08:54:00
2:54 AM,52.0,51.1,97,29.73,3.0,West,3.5,-,0.12,Rain,Rain,270,2012-11-01 09:54:00
3:05 AM,51.8,51.8,100,29.73,2.5,WNW,3.5,-,0.04,Rain,Rain,290,2012-11-01 10:05:00
3:19 AM,51.8,51.8,100,29.73,4.0,West,5.8,-,0.08,Rain,Light Rain,270,2012-11-01 10:19:00
3:38 AM,51.8,51.8,100,29.73,7.0,Calm,Calm,-,0.11,Rain,Light Rain,0,2012-11-01 10:38:00
3:54 AM,51.1,51.1,100,29.74,5.0,South,3.5,-,0.12,Rain,Light Rain,170,2012-11-01 10:54:00
4:22 AM,51.8,51.8,100,29.75,5.0,SE,5.8,-,0.04,Rain,Light Rain,140,2012-11-01 11:22:00
4:37 AM,51.8,51.8,100,29.75,4.0,South,6.9,-,0.07,Rain,Rain,170,2012-11-01 11:37:00
4:47 AM,51.8,51.8,100,29.75,3.0,South,8.1,-,0.11,Rain,Heavy Rain,180,2012-11-01 11:47:00
4:54 AM,51.8,51.8,100,29.75,3.0,South,3.5,-,N/A,Rain,Rain,180,2012-11-01 11:54:00
5:54 AM,51.1,51.1,100,29.75,6.0,Calm,Calm,-,0.11,Rain,Light Rain,0,2012-11-01 12:54:00
6:54 AM,52.0,51.1,97,29.76,5.0,Calm,Calm,-,0.03,Rain,Light Rain,0,2012-11-01 13:54:00
7:54 AM,52.0,50.0,93,29.76,10.0,South,4.6,-,0.02,Rain,Light Rain,180,2012-11-01 14:54:00
8:54 AM,52.0,51.1,97,29.78,9.0,Calm,Calm,-,0.00,,Overcast,0,2012-11-01 15:54:00
9:54 AM,53.6,51.8,94,29.80,10.0,Calm,Calm,-,N/A,,Mostly Cloudy,0,2012-11-01 16:54:00
10:54 AM,55.9,51.1,84,29.82,10.0,South,11.5,-,N/A,,Overcast,190,2012-11-01 17:54:00
11:54 AM,57.9,51.1,78,29.84,9.0,South,10.4,-,N/A,,Mostly Cloudy,180,2012-11-01 18:54:00
12:54 PM,57.0,51.1,81,29.87,10.0,SSW,8.1,-,N/A,,Overcast,210,2012-11-01 19:54:00
1:54 PM,57.0,51.1,81,29.89,10.0,SSW,9.2,-,N/A,,Overcast,200,2012-11-01 20:54:00
2:28 PM,55.4,55.4,100,29.89,3.0,South,6.9,-,0.03,Rain,Light Rain,180,2012-11-01 21:28:00
2:54 PM,57.2,55.4,94,29.90,9.0,South,5.8,-,N/A,,Overcast,180,2012-11-01 21:54:00
3:54 PM,57.0,53.1,87,29.91,3.0,WSW,9.2,-,0.00,Rain,Light Rain,240,2012-11-01 22:54:00
4:54 PM,55.9,53.1,90,29.92,10.0,SW,3.5,-,0.03,,Mostly Cloudy,230,2012-11-01 23:54:00
5:54 PM,54.0,52.0,93,29.94,9.0,SSW,4.6,-,N/A,,Mostly Cloudy,200,2012-11-02 00:54:00
6:54 PM,53.1,52.0,96,29.96,10.0,South,3.5,-,0.01,,Mostly Cloudy,190,2012-11-02 01:54:00
7:54 PM,53.1,51.1,93,29.98,10.0,SSW,5.8,-,0.00,,Mostly Cloudy,210,2012-11-02 02:54:00
8:54 PM,53.1,52.0,96,30.00,10.0,South,3.5,-,0.00,,Overcast,190,2012-11-02 03:54:00
9:54 PM,52.0,51.1,97,30.02,10.0,South,4.6,-,N/A,,Overcast,180,2012-11-02 04:54:00
10:54 PM,52.0,52.0,100,30.03,6.0,Calm,Calm,-,0.01,Rain,Light Rain,0,2012-11-02 05:54:00
11:43 PM,50.0,50.0,100,30.02,1.5,Calm,Calm,-,0.00,,Overcast,0,2012-11-02 06:43:00
11:49 PM,50.0,50.0,100,30.02,0.8,Calm,Calm,-,0.00,,Overcast,0,2012-11-02 06:49:00
11:54 PM,50.0,50.0,100,30.02,0.8,Calm,Calm,-,0.00,,Overcast,0,2012-11-02 06:54:00